Location: Bagnolo San Vito
(45.0833°N, 10.8833°E)
Time: 23:26:14
(UTC+00:00)

MOS 1 - Pass Details

Date: 03 March 2021
Orbit: 878 x 891 km, 99.1° (Epoch: 17 April)

Event Time Altitude Azimuth Distance (km) Brightness Sun altitude
Exits shadow 19:26:08 36° 173° (S) 1,382 5.1 -25.2°
Maximum altitude 19:28:37 80° 255° (WSW) 905 4.3 -25.6°
Drops below altitude 10° 19:34:20 10° 343° (NNW) 2,558 7.1 -26.5°
Sets 19:36:44 0° 345° (NNW) 3,499 7.9 -26.9°
